FLOCK 4V-21 (46596 NORAD) Tracking and Keplerian Element Data

This shows tracking and keplerian element data for the satellite.

Feedback or suggestion? Click here.




ElementValue
Catalog46596
NameFLOCK 4V-21
Epoch Orbit763
Epoch Day338.92183928
Epoch Year2020
RAAN50.3656
Inclination97.4533
Eccentricity0.0002791
Argument of Perigee257.7881
Mean Anonmoly102.3039
Mean Motion15.15771092
Decay Rate1.567E-05
L11 46596U 20061BK 20338.92183928 .00001567 00000-0 85559-4 0 9992
L22 46596 97.4533 50.3656 0002791 257.7881 102.3039 15.15771092 7637

Live tracking and technical data element details for FLOCK 4V-21 (NORAD 46596). FLOCK 4V-21 can be tracked NOW for your location showing map with azimuth and elevation plus other details from your city location.

Track the satellite on the map from your city or location and see movement details for azimuth, elevation, latitude, longitude, range, height, and movement on the map or in text.







IsCatalogInMostPopularTable: catalog: 46596, numindb: 13
Update: records affected: 1



GetName: 46596 FLOCK 4V-21

Hit Count: updated at: Sat, 05 Dec 2020 05:29:32 GMT